Find PICO-02A021

NORAD ID: 60538 Int'l Des: 2024-149 Owner: APOGEO Country: I operational
LEOCIRCULARRETROGRADESSO

リアルタイム位置

3D地球を読み込み中...

PICO-02A021について

説明を読み込み中...

次回通過

Passes for default location (London). Set your location on the main map for personalized predictions.

高度履歴

Loading altitude history...

軌道要素

1 60538U 24149BY 26107.18134610 .00002940 00000-0 22505-3 0 9994
2 60538 97.6735 186.5671 0004381 215.2139 144.8797 15.02647627 90575
Epoch: Apr 17, 2026 • Age: 13 hours

現在のステータス

高度 564.1 km
速度 7.58 km/s
衛星直下点 2.83°N, 83.62°E
打ち上げ日 Aug 16, 2024
運用期間 1.6 years
タイプ other

技術仕様

分類 Payload
質量 0.50 kg
乾燥質量 0.50 kg
総質量 0.50 kg
長さ 0.03 m
直径 0.10 m
スパン 0.10 m
形状 Box
製造者 APOGEO
バスタイプ Cubesat 0.3U
フェーズステータス In Orbit
所有者/国 APOGEO/I

Most Searched